Orbital elements:
2003 GS                                                              PHA 0.007
Epoch 2003 Mar. 22.0 TT = JDT 2452720.5                 MPC
M 147.70607              (2000.0)            P               Q
n   1.16736538     Peri.  181.79868     +0.95037990     -0.30550245
a   0.8933017      Node   196.36207     +0.28795980     +0.93531338
e   0.2181821      Incl.   12.02811     +0.11771662     +0.17848566
P   0.84           H   19.1           G   0.15
From 91 observations 2003 Apr. 4-5.

Ephemeris:
2003 GS                  a,e,i = 0.89, 0.22, 12                  q = 0.6984
Date    TT    R. A. (2000) Decl.     Delta      r     Elong.  Phase     V
2003 04 01    08 43.75   -01 24.4    0.143    1.080   121.0    52.5    17.0
2003 04 06    08 54.86   +05 29.0    0.157    1.084   118.2    54.4    17.2
2003 04 11    09 06.03   +11 02.7    0.174    1.087   114.9    56.8    17.5
2003 04 16    09 17.24   +15 28.6    0.192    1.088   111.4    59.2    17.8
2003 04 21    09 28.43   +18 59.2    0.210    1.088   107.9    61.5    18.1
2003 04 26    09 39.61   +21 45.6    0.229    1.087   104.6    63.6    18.3
2003 05 01    09 50.79   +23 56.6    0.248    1.084   101.4    65.7    18.6
2003 05 06    10 01.95   +25 39.3    0.267    1.080    98.3    67.5    18.8
2003 05 11    10 13.06   +26 59.7    0.285    1.075    95.4    69.3    19.0

2003 05 21    10 34.89   +28 50.9    0.318    1.060    89.9    72.7    19.3
2003 05 31    10 55.99   +29 56.8    0.345    1.040    84.6    76.1    19.5
2003 06 10    11 16.11   +30 34.9    0.365    1.015    79.6    79.7    19.7
2003 06 20    11 34.64   +31 00.0    0.377    0.986    74.6    83.7    19.9
2003 06 30    11 50.76   +31 22.6    0.380    0.952    69.4    88.7    20.0
2003 07 10    12 03.17   +31 53.0    0.373    0.915    63.7    94.9    20.2
2003 07 20    12 09.33   +32 39.9    0.357    0.875    57.1   102.9    20.3

Brian G. Marsden             (C) Copyright 2003 MPC           M.P.E.C. 2003-G25

Read MPEC 2003-G24 Read MPEC 2003-G26


MPEC number:

Enter an MPEC number in one of the following forms:

  • 1997-B01 (the full form)
  • J97B01 (the packed version of the full form)
  • B01 (the abbreviated form)

